Time,TemperatureF,DewpointF,PressureIn,WindDirection,WindDirectionDegrees,WindSpeedMPH,WindSpeedGustMPH,Humidity,HourlyPrecipIn,Conditions,Clouds,dailyrainin,SoftwareType,DateUTC
2013-08-12 00:01:00,71.0,68.6,30.02,SE,142,0.0,0.0,92,0.00,,---,0.00,VWS V14.01,2013-08-12 04:01:00,
2013-08-12 00:04:00,70.9,68.5,30.02,SE,142,0.0,0.0,92,0.00,,---,0.00,VWS V14.01,2013-08-12 04:04:00,
2013-08-12 00:09:00,70.8,68.4,30.02,SE,141,0.0,0.0,92,0.00,,---,0.00,VWS V14.01,2013-08-12 04:09:00,
2013-08-12 00:14:00,70.7,68.3,30.02,SE,141,0.0,0.0,92,0.00,,---,0.00,VWS V14.01,2013-08-12 04:14:00,
2013-08-12 00:19:00,70.7,68.3,30.02,SE,141,0.0,0.0,92,0.00,,---,0.00,VWS V14.01,2013-08-12 04:19:00,
2013-08-12 00:24:00,70.7,68.3,30.02,SE,142,0.0,0.0,92,0.00,,---,0.00,VWS V14.01,2013-08-12 04:24:00,
2013-08-12 00:29:00,70.6,68.2,30.02,SE,142,0.0,0.0,92,0.00,,---,0.00,VWS V14.01,2013-08-12 04:29:00,
2013-08-12 00:34:00,70.6,68.2,30.02,SE,142,0.0,0.0,92,0.00,,---,0.00,VWS V14.01,2013-08-12 04:34:00,
2013-08-12 00:39:00,70.5,68.1,30.02,SE,142,0.0,0.0,92,0.00,,---,0.00,VWS V14.01,2013-08-12 04:39:00,
2013-08-12 00:44:00,70.4,68.0,30.02,SE,142,0.0,0.0,92,0.00,,---,0.00,VWS V14.01,2013-08-12 04:44:00,
2013-08-12 00:49:00,70.5,68.1,30.02,SE,141,0.0,0.0,92,0.00,,---,0.00,VWS V14.01,2013-08-12 04:49:00,
2013-08-12 00:54:00,70.4,68.0,30.02,SE,142,0.0,0.0,92,0.00,,---,0.00,VWS V14.01,2013-08-12 04:54:00,
2013-08-12 00:59:00,70.5,68.1,30.02,SE,141,0.0,0.0,92,0.00,,---,0.00,VWS V14.01,2013-08-12 04:59:00,
2013-08-12 01:04:00,70.5,68.1,30.02,SE,141,0.0,0.0,92,0.00,,---,0.00,VWS V14.01,2013-08-12 05:04:00,
2013-08-12 01:09:00,70.5,68.1,30.02,SE,142,0.0,0.0,92,0.00,,---,0.00,VWS V14.01,2013-08-12 05:09:00,
2013-08-12 01:14:00,70.5,68.1,30.02,SE,141,0.0,0.0,92,0.00,,---,0.00,VWS V14.01,2013-08-12 05:14:00,
2013-08-12 01:19:00,70.4,68.0,30.01,SE,142,0.0,0.0,92,0.00,,---,0.00,VWS V14.01,2013-08-12 05:19:00,
2013-08-12 01:24:00,70.4,68.0,30.01,SE,136,0.0,0.0,92,0.00,,---,0.00,VWS V14.01,2013-08-12 05:24:00,
2013-08-12 01:29:00,70.4,68.0,30.02,SE,136,0.0,0.0,92,0.00,,---,0.00,VWS V14.01,2013-08-12 05:29:00,
2013-08-12 01:34:00,70.1,67.7,30.01,SE,136,0.0,0.0,92,0.00,,---,0.00,VWS V14.01,2013-08-12 05:34:00,
2013-08-12 01:39:00,69.8,67.4,30.01,SE,136,0.0,0.0,92,0.00,,---,0.00,VWS V14.01,2013-08-12 05:39:00,
2013-08-12 01:44:00,69.7,67.3,30.02,SE,136,0.0,0.0,92,0.00,,---,0.00,VWS V14.01,2013-08-12 05:44:00,
2013-08-12 01:49:00,69.7,67.3,30.02,SE,136,0.0,0.0,92,0.00,,---,0.00,VWS V14.01,2013-08-12 05:49:00,
2013-08-12 01:54:00,69.7,67.3,30.02,SE,136,0.0,0.0,92,0.00,,---,0.00,VWS V14.01,2013-08-12 05:54:00,
2013-08-12 01:59:00,69.6,67.2,30.02,SE,136,0.0,0.0,92,0.00,,---,0.00,VWS V14.01,2013-08-12 05:59:00,
2013-08-12 02:04:00,69.5,67.1,30.02,SE,136,0.0,0.0,92,0.00,,---,0.00,VWS V14.01,2013-08-12 06:04:00,
2013-08-12 02:09:00,69.4,67.0,30.02,SE,136,0.0,0.0,92,0.00,,---,0.00,VWS V14.01,2013-08-12 06:09:00,
2013-08-12 02:14:00,69.4,67.0,30.02,SE,136,0.0,0.0,92,0.00,,---,0.00,VWS V14.01,2013-08-12 06:14:00,
2013-08-12 02:19:00,69.3,66.9,30.02,SE,136,0.0,0.0,92,0.00,,---,0.00,VWS V14.01,2013-08-12 06:19:00,
2013-08-12 02:23:00,69.2,66.8,30.02,SE,136,0.0,0.0,92,0.00,,---,0.00,VWS V14.01,2013-08-12 06:23:00,
2013-08-12 02:28:00,69.2,66.8,30.01,SE,136,0.0,0.0,92,0.00,,---,0.00,VWS V14.01,2013-08-12 06:28:00,
2013-08-12 02:33:00,69.2,66.8,30.01,SE,136,0.0,0.0,92,0.00,,---,0.00,VWS V14.01,2013-08-12 06:33:00,
2013-08-12 02:38:00,69.2,66.8,30.01,SE,136,0.0,0.0,92,0.00,,---,0.00,VWS V14.01,2013-08-12 06:38:00,
2013-08-12 02:43:00,69.0,66.6,30.01,SE,136,0.0,0.0,92,0.00,,---,0.00,VWS V14.01,2013-08-12 06:43:00,
2013-08-12 02:48:00,69.0,66.6,30.01,SE,136,0.0,0.0,92,0.00,,---,0.00,VWS V14.01,2013-08-12 06:48:00,
2013-08-12 02:53:00,69.0,66.6,30.01,SE,136,0.0,0.0,92,0.00,,---,0.00,VWS V14.01,2013-08-12 06:53:00,
2013-08-12 02:58:00,69.2,66.8,30.01,SE,136,0.0,0.0,92,0.00,,---,0.00,VWS V14.01,2013-08-12 06:58:00,
2013-08-12 03:03:00,69.1,66.7,30.01,SE,136,0.0,0.0,92,0.00,,---,0.00,VWS V14.01,2013-08-12 07:03:00,
2013-08-12 03:08:00,69.1,66.7,30.01,SE,136,0.0,0.0,92,0.00,,---,0.00,VWS V14.01,2013-08-12 07:08:00,
2013-08-12 03:13:00,69.0,66.6,30.01,SE,136,0.0,0.0,92,0.00,,---,0.00,VWS V14.01,2013-08-12 07:13:00,
2013-08-12 03:18:00,69.0,66.6,30.01,SE,136,0.0,0.0,92,0.00,,---,0.00,VWS V14.01,2013-08-12 07:18:00,
2013-08-12 03:23:00,69.0,66.6,30.01,SE,136,0.0,0.0,92,0.00,,---,0.00,VWS V14.01,2013-08-12 07:23:00,
2013-08-12 03:28:00,69.0,66.6,30.01,SE,136,0.0,0.0,92,0.00,,---,0.00,VWS V14.01,2013-08-12 07:28:00,
2013-08-12 03:33:00,68.9,66.5,30.01,SE,136,0.0,0.0,92,0.00,,---,0.00,VWS V14.01,2013-08-12 07:33:00,
2013-08-12 03:38:00,68.8,66.7,30.01,SE,136,0.0,0.0,93,0.00,,---,0.00,VWS V14.01,2013-08-12 07:38:00,
2013-08-12 03:43:00,68.7,66.6,30.01,SE,136,0.0,0.0,93,0.00,,---,0.00,VWS V14.01,2013-08-12 07:43:00,
2013-08-12 03:48:00,68.5,66.1,30.01,SE,136,0.0,0.0,92,0.00,,---,0.00,VWS V14.01,2013-08-12 07:48:00,
2013-08-12 03:53:00,68.3,65.9,30.01,SE,136,0.0,0.0,92,0.00,,---,0.00,VWS V14.01,2013-08-12 07:53:00,
2013-08-12 03:58:00,68.1,66.0,30.01,SE,136,0.0,0.0,93,0.00,,---,0.00,VWS V14.01,2013-08-12 07:58:00,
2013-08-12 04:03:00,68.0,65.9,30.01,SE,136,0.0,0.0,93,0.00,,---,0.00,VWS V14.01,2013-08-12 08:03:00,
2013-08-12 04:08:00,68.0,65.9,30.01,SE,136,0.0,0.0,93,0.00,,---,0.00,VWS V14.01,2013-08-12 08:08:00,
2013-08-12 04:13:00,68.0,65.9,30.01,SE,136,0.0,0.0,93,0.00,,---,0.00,VWS V14.01,2013-08-12 08:13:00,
2013-08-12 04:18:00,67.9,65.8,30.01,SE,136,0.0,0.0,93,0.00,,---,0.00,VWS V14.01,2013-08-12 08:18:00,
2013-08-12 04:23:00,67.7,65.6,30.01,SE,136,0.0,0.0,93,0.00,,---,0.00,VWS V14.01,2013-08-12 08:23:00,
2013-08-12 04:28:00,67.4,65.3,30.01,SE,136,0.0,0.0,93,0.00,,---,0.00,VWS V14.01,2013-08-12 08:28:00,
2013-08-12 04:33:00,67.3,65.2,30.01,SE,136,0.0,0.0,93,0.00,,---,0.00,VWS V14.01,2013-08-12 08:33:00,
2013-08-12 04:38:00,67.2,65.1,30.01,SE,136,0.0,0.0,93,0.00,,---,0.00,VWS V14.01,2013-08-12 08:38:00,
2013-08-12 04:43:00,67.1,65.0,30.01,SE,136,0.0,0.0,93,0.00,,---,0.00,VWS V14.01,2013-08-12 08:43:00,
2013-08-12 04:48:00,67.1,65.0,30.01,SE,136,0.0,0.0,93,0.00,,---,0.00,VWS V14.01,2013-08-12 08:48:00,
2013-08-12 04:53:00,67.0,64.9,30.01,SE,136,0.0,0.0,93,0.00,,---,0.00,VWS V14.01,2013-08-12 08:53:00,
2013-08-12 04:58:00,67.1,65.0,30.01,SE,136,0.0,0.0,93,0.00,,---,0.00,VWS V14.01,2013-08-12 08:58:00,
2013-08-12 05:03:00,67.0,64.9,30.02,SE,136,0.0,0.0,93,0.00,,---,0.00,VWS V14.01,2013-08-12 09:03:00,
2013-08-12 05:08:00,66.8,64.7,30.02,SE,136,0.0,0.0,93,0.00,,---,0.00,VWS V14.01,2013-08-12 09:08:00,
2013-08-12 05:13:00,66.7,64.6,30.02,SE,136,0.0,0.0,93,0.00,,---,0.00,VWS V14.01,2013-08-12 09:13:00,
2013-08-12 05:18:00,66.7,64.6,30.02,SE,136,0.0,0.0,93,0.00,,---,0.00,VWS V14.01,2013-08-12 09:18:00,
2013-08-12 05:23:00,66.7,64.6,30.02,SE,136,0.0,0.0,93,0.00,,---,0.00,VWS V14.01,2013-08-12 09:23:00,
2013-08-12 05:28:00,66.7,64.6,30.02,SE,136,0.0,0.0,93,0.00,,---,0.00,VWS V14.01,2013-08-12 09:28:00,
2013-08-12 05:33:00,66.7,64.6,30.02,SE,136,0.0,0.0,93,0.00,,---,0.00,VWS V14.01,2013-08-12 09:33:00,
2013-08-12 05:38:00,66.7,64.6,30.02,SE,136,0.0,0.0,93,0.00,,---,0.00,VWS V14.01,2013-08-12 09:38:00,
2013-08-12 05:43:00,67.0,64.9,30.02,SE,136,0.0,0.0,93,0.00,,---,0.00,VWS V14.01,2013-08-12 09:43:00,
2013-08-12 05:48:00,66.7,64.6,30.02,SE,134,0.0,0.0,93,0.00,,---,0.00,VWS V14.01,2013-08-12 09:48:00,
2013-08-12 05:53:00,66.7,64.6,30.02,SE,135,0.0,0.0,93,0.00,,---,0.00,VWS V14.01,2013-08-12 09:53:00,
2013-08-12 05:58:00,66.5,64.4,30.02,SE,135,0.0,0.0,93,0.00,,---,0.00,VWS V14.01,2013-08-12 09:58:00,
2013-08-12 06:03:00,66.5,64.4,30.02,SE,134,0.0,0.0,93,0.00,,---,0.00,VWS V14.01,2013-08-12 10:03:00,
2013-08-12 06:08:00,66.3,64.2,30.02,SE,134,0.0,0.0,93,0.00,,---,0.00,VWS V14.01,2013-08-12 10:08:00,
2013-08-12 06:13:00,66.3,64.2,30.03,SE,135,0.0,0.0,93,0.00,,---,0.00,VWS V14.01,2013-08-12 10:13:00,
2013-08-12 06:18:00,66.1,64.0,30.03,SE,135,0.0,0.0,93,0.00,,---,0.00,VWS V14.01,2013-08-12 10:18:00,
2013-08-12 06:23:00,66.1,64.0,30.03,SE,134,0.0,0.0,93,0.00,,---,0.00,VWS V14.01,2013-08-12 10:23:00,
2013-08-12 06:28:00,66.0,63.9,30.03,SE,134,0.0,0.0,93,0.00,,---,0.00,VWS V14.01,2013-08-12 10:28:00,
2013-08-12 06:33:00,66.0,63.9,30.03,SE,134,0.0,0.0,93,0.00,,---,0.00,VWS V14.01,2013-08-12 10:33:00,
2013-08-12 06:38:00,66.1,64.0,30.03,SE,135,0.0,0.0,93,0.00,,---,0.00,VWS V14.01,2013-08-12 10:38:00,
2013-08-12 06:43:00,66.4,64.3,30.03,SE,135,0.0,0.0,93,0.00,,---,0.00,VWS V14.01,2013-08-12 10:43:00,
2013-08-12 06:48:00,66.6,64.5,30.03,SE,135,0.0,0.0,93,0.00,,---,0.00,VWS V14.01,2013-08-12 10:48:00,
2013-08-12 06:53:00,66.8,64.7,30.03,SE,134,0.0,0.0,93,0.01,,---,0.01,VWS V14.01,2013-08-12 10:53:00,
2013-08-12 06:58:00,67.0,64.9,30.03,SE,134,0.0,0.0,93,0.01,,---,0.01,VWS V14.01,2013-08-12 10:58:00,
2013-08-12 07:03:00,67.2,65.1,30.04,SE,135,0.0,0.0,93,0.01,,---,0.01,VWS V14.01,2013-08-12 11:03:00,
2013-08-12 07:08:00,67.3,65.2,30.04,SE,135,0.0,0.0,93,0.01,,---,0.01,VWS V14.01,2013-08-12 11:08:00,
2013-08-12 07:13:00,67.4,65.3,30.04,SE,135,0.0,0.0,93,0.01,,---,0.01,VWS V14.01,2013-08-12 11:13:00,
2013-08-12 07:18:00,67.5,65.4,30.03,SE,134,0.0,0.0,93,0.01,,---,0.01,VWS V14.01,2013-08-12 11:18:00,
2013-08-12 07:23:00,67.7,65.6,30.03,SE,135,0.0,0.0,93,0.01,,---,0.01,VWS V14.01,2013-08-12 11:23:00,
2013-08-12 07:28:00,67.8,65.7,30.03,SE,134,0.0,0.0,93,0.01,,---,0.01,VWS V14.01,2013-08-12 11:28:00,
2013-08-12 07:33:00,67.9,65.8,30.04,SE,135,0.0,0.0,93,0.01,,---,0.01,VWS V14.01,2013-08-12 11:33:00,
2013-08-12 07:38:00,68.0,65.9,30.03,SE,135,0.0,0.0,93,0.01,,---,0.01,VWS V14.01,2013-08-12 11:38:00,
2013-08-12 07:43:00,68.1,66.0,30.04,SE,135,0.0,0.0,93,0.01,,---,0.01,VWS V14.01,2013-08-12 11:43:00,
2013-08-12 07:48:00,68.1,66.0,30.04,SE,135,0.0,0.0,93,0.01,,---,0.01,VWS V14.01,2013-08-12 11:48:00,
2013-08-12 07:53:00,68.0,65.9,30.04,SE,136,0.0,0.0,93,0.01,,---,0.01,VWS V14.01,2013-08-12 11:53:00,
2013-08-12 07:58:00,67.9,65.8,30.04,SE,136,0.0,0.0,93,0.01,,---,0.01,VWS V14.01,2013-08-12 11:58:00,
2013-08-12 08:03:00,67.9,65.8,30.04,SE,136,0.0,0.0,93,0.00,,---,0.01,VWS V14.01,2013-08-12 12:03:00,
2013-08-12 08:08:00,68.0,65.9,30.04,SE,136,0.0,0.0,93,0.00,,---,0.01,VWS V14.01,2013-08-12 12:08:00,
2013-08-12 08:13:00,68.1,66.0,30.04,SE,136,0.0,0.0,93,0.00,,---,0.01,VWS V14.01,2013-08-12 12:13:00,
2013-08-12 08:18:00,68.1,66.0,30.04,SE,136,0.0,0.0,93,0.00,,---,0.01,VWS V14.01,2013-08-12 12:18:00,
2013-08-12 08:23:00,68.2,66.1,30.04,NW,317,0.0,0.0,93,0.00,,---,0.01,VWS V14.01,2013-08-12 12:23:00,
2013-08-12 08:28:00,68.0,65.9,30.04,NW,318,0.0,0.0,93,0.00,,---,0.01,VWS V14.01,2013-08-12 12:28:00,
2013-08-12 08:33:00,68.2,66.1,30.04,NW,318,0.0,0.0,93,0.00,,---,0.01,VWS V14.01,2013-08-12 12:33:00,
2013-08-12 08:38:00,68.5,66.4,30.04,NW,318,0.0,0.0,93,0.00,,---,0.01,VWS V14.01,2013-08-12 12:38:00,
2013-08-12 08:43:00,68.6,66.5,30.04,NW,318,0.0,0.0,93,0.00,,---,0.01,VWS V14.01,2013-08-12 12:43:00,
2013-08-12 08:48:00,68.6,66.5,30.04,NW,318,0.0,0.0,93,0.00,,---,0.01,VWS V14.01,2013-08-12 12:48:00,
2013-08-12 08:52:00,68.6,66.5,30.04,NW,318,0.0,0.0,93,0.00,,---,0.01,VWS V14.01,2013-08-12 12:52:00,
2013-08-12 08:57:00,68.7,66.6,30.04,NW,318,0.0,0.0,93,0.00,,---,0.01,VWS V14.01,2013-08-12 12:57:00,
2013-08-12 09:02:00,69.0,66.9,30.04,NW,318,0.0,0.0,93,0.00,,---,0.01,VWS V14.01,2013-08-12 13:02:00,
2013-08-12 09:07:00,69.2,67.1,30.04,NW,318,0.0,0.0,93,0.00,,---,0.01,VWS V14.01,2013-08-12 13:07:00,
2013-08-12 09:12:00,69.3,67.2,30.04,NW,318,0.0,0.0,93,0.00,,---,0.01,VWS V14.01,2013-08-12 13:12:00,
2013-08-12 09:17:00,69.6,67.5,30.03,WSW,247,0.0,0.0,93,0.00,,---,0.01,VWS V14.01,2013-08-12 13:17:00,
2013-08-12 09:22:00,70.1,68.0,30.03,SW,217,0.0,0.0,93,0.00,,---,0.01,VWS V14.01,2013-08-12 13:22:00,
2013-08-12 09:27:00,70.4,68.3,30.03,SW,217,0.0,0.0,93,0.00,,---,0.01,VWS V14.01,2013-08-12 13:27:00,
2013-08-12 09:32:00,70.5,68.1,30.03,SW,217,0.0,0.0,92,0.00,,---,0.01,VWS V14.01,2013-08-12 13:32:00,
2013-08-12 09:37:00,71.0,68.9,30.03,SW,217,0.0,0.0,93,0.00,,---,0.01,VWS V14.01,2013-08-12 13:37:00,
2013-08-12 09:42:00,71.6,69.5,30.03,SW,217,0.0,0.0,93,0.00,,---,0.01,VWS V14.01,2013-08-12 13:42:00,
2013-08-12 09:47:00,71.6,69.5,30.03,WNW,286,0.0,0.0,93,0.00,,---,0.01,VWS V14.01,2013-08-12 13:47:00,
2013-08-12 09:52:00,72.0,69.6,30.03,NNW,329,0.0,0.0,92,0.00,,---,0.01,VWS V14.01,2013-08-12 13:52:00,
2013-08-12 09:57:00,72.1,69.7,30.03,NNW,329,0.0,0.0,92,0.00,,---,0.01,VWS V14.01,2013-08-12 13:57:00,
2013-08-12 10:02:00,73.0,70.5,30.03,NNW,329,0.0,0.0,92,0.00,,---,0.01,VWS V14.01,2013-08-12 14:02:00,
2013-08-12 10:07:00,73.8,71.3,30.03,NNW,329,0.0,0.0,92,0.00,,---,0.01,VWS V14.01,2013-08-12 14:07:00,
2013-08-12 10:12:00,74.8,72.3,30.02,West,268,0.0,0.0,92,0.00,,---,0.01,VWS V14.01,2013-08-12 14:12:00,
2013-08-12 10:17:00,75.6,73.1,30.02,West,268,0.0,0.0,92,0.00,,---,0.01,VWS V14.01,2013-08-12 14:17:00,
2013-08-12 10:22:00,76.2,73.4,30.02,West,269,0.0,0.0,91,0.00,,---,0.01,VWS V14.01,2013-08-12 14:22:00,
2013-08-12 10:27:00,77.5,73.7,30.02,West,266,0.0,0.0,88,0.00,,---,0.01,VWS V14.01,2013-08-12 14:27:00,
2013-08-12 10:32:00,78.3,73.1,30.01,West,266,0.0,0.0,84,0.00,,---,0.01,VWS V14.01,2013-08-12 14:32:00,
2013-08-12 10:37:00,78.8,72.1,30.02,SW,215,0.0,0.0,80,0.00,,---,0.01,VWS V14.01,2013-08-12 14:37:00,
2013-08-12 10:42:00,79.4,72.7,30.02,SSW,195,0.0,0.0,80,0.00,,---,0.01,VWS V14.01,2013-08-12 14:42:00,
2013-08-12 10:47:00,80.0,72.2,30.02,South,191,0.0,0.0,77,0.00,,---,0.01,VWS V14.01,2013-08-12 14:47:00,
2013-08-12 10:52:00,80.4,71.4,30.02,SW,229,0.0,0.0,74,0.00,,---,0.01,VWS V14.01,2013-08-12 14:52:00,
2013-08-12 10:57:00,80.5,71.5,30.02,South,169,0.0,3.0,74,0.00,,---,0.01,VWS V14.01,2013-08-12 14:57:00,
2013-08-12 11:02:00,80.5,71.8,30.02,NNW,348,3.0,4.0,75,0.00,,---,0.01,VWS V14.01,2013-08-12 15:02:00,
2013-08-12 11:07:00,80.0,71.4,30.02,NW,321,1.0,4.0,75,0.00,,---,0.01,VWS V14.01,2013-08-12 15:07:00,
2013-08-12 11:12:00,80.2,71.2,30.02,NW,321,0.0,4.0,74,0.00,,---,0.01,VWS V14.01,2013-08-12 15:12:00,
2013-08-12 11:17:00,80.9,71.4,30.02,NNW,331,0.0,4.0,73,0.00,,---,0.01,VWS V14.01,2013-08-12 15:17:00,
2013-08-12 11:22:00,82.1,72.6,30.01,NW,326,2.0,4.0,73,0.00,,---,0.01,VWS V14.01,2013-08-12 15:22:00,
2013-08-12 11:27:00,81.7,69.2,30.02,NW,323,1.0,8.0,66,0.00,,---,0.01,VWS V14.01,2013-08-12 15:27:00,
2013-08-12 11:32:00,81.5,69.9,30.02,NW,315,0.0,4.0,68,0.00,,---,0.01,VWS V14.01,2013-08-12 15:32:00,
2013-08-12 11:37:00,81.6,70.0,30.02,NW,313,0.0,4.0,68,0.00,,---,0.01,VWS V14.01,2013-08-12 15:37:00,
2013-08-12 11:42:00,81.8,68.9,30.01,NW,317,0.0,5.0,65,0.00,,---,0.01,VWS V14.01,2013-08-12 15:42:00,
2013-08-12 11:47:00,82.3,69.8,30.01,North,360,1.0,5.0,66,0.00,,---,0.01,VWS V14.01,2013-08-12 15:47:00,
2013-08-12 11:52:00,82.6,69.2,30.01,North,9,0.0,6.0,64,0.00,,---,0.01,VWS V14.01,2013-08-12 15:52:00,
2013-08-12 11:57:00,82.3,69.4,30.01,NNW,327,0.0,6.0,65,0.00,,---,0.01,VWS V14.01,2013-08-12 15:57:00,
2013-08-12 12:02:00,82.2,69.3,30.01,NW,319,2.0,4.0,65,0.00,,---,0.01,VWS V14.01,2013-08-12 16:02:00,
2013-08-12 12:07:00,82.6,69.2,30.00,SW,226,1.0,5.0,64,0.00,,---,0.01,VWS V14.01,2013-08-12 16:07:00,
2013-08-12 12:12:00,83.2,70.2,30.00,ESE,122,3.0,5.0,65,0.00,,---,0.01,VWS V14.01,2013-08-12 16:12:00,
2013-08-12 12:17:00,83.6,70.1,30.00,NNE,25,2.0,6.0,64,0.00,,---,0.01,VWS V14.01,2013-08-12 16:17:00,
2013-08-12 12:22:00,83.9,69.5,30.00,NNW,336,0.0,6.0,62,0.00,,---,0.01,VWS V14.01,2013-08-12 16:22:00,
2013-08-12 12:27:00,84.5,70.5,30.00,NNW,344,1.0,6.0,63,0.00,,---,0.01,VWS V14.01,2013-08-12 16:27:00,
2013-08-12 12:32:00,84.0,69.1,30.00,NNE,15,6.0,6.0,61,0.00,,---,0.01,VWS V14.01,2013-08-12 16:32:00,
2013-08-12 12:37:00,83.6,68.7,30.00,NNE,26,0.0,8.0,61,0.00,,---,0.01,VWS V14.01,2013-08-12 16:37:00,
2013-08-12 12:42:00,84.2,70.2,29.99,WNW,296,0.0,8.0,63,0.00,,---,0.01,VWS V14.01,2013-08-12 16:42:00,
2013-08-12 12:47:00,84.8,69.9,29.99,WNW,288,0.0,8.0,61,0.00,,---,0.01,VWS V14.01,2013-08-12 16:47:00,
2013-08-12 12:52:00,85.7,69.7,30.00,NNW,344,2.0,8.0,59,0.00,,---,0.01,VWS V14.01,2013-08-12 16:52:00,
2013-08-12 12:57:00,85.9,69.4,30.00,NNW,327,0.0,8.0,58,0.00,,---,0.01,VWS V14.01,2013-08-12 16:57:00,
2013-08-12 13:02:00,85.4,69.0,30.00,North,360,4.0,4.0,58,0.00,,---,0.01,VWS V14.01,2013-08-12 17:02:00,
2013-08-12 13:07:00,84.4,69.0,30.00,NW,317,0.0,4.0,60,0.00,,---,0.01,VWS V14.01,2013-08-12 17:07:00,
2013-08-12 13:12:00,84.4,69.0,30.00,NNE,32,2.0,5.0,60,0.00,,---,0.01,VWS V14.01,2013-08-12 17:12:00,
2013-08-12 13:17:00,84.5,70.5,29.99,ENE,65,0.0,5.0,63,0.00,,---,0.01,VWS V14.01,2013-08-12 17:17:00,
2013-08-12 13:22:00,84.6,68.7,29.99,SSW,213,0.0,5.0,59,0.00,,---,0.01,VWS V14.01,2013-08-12 17:22:00,
2013-08-12 13:27:00,85.4,69.4,29.99,SSW,213,0.0,5.0,59,0.00,,---,0.01,VWS V14.01,2013-08-12 17:27:00,
2013-08-12 13:32:00,85.4,69.0,29.99,North,355,0.0,1.0,58,0.00,,---,0.01,VWS V14.01,2013-08-12 17:32:00,
2013-08-12 13:37:00,85.5,69.6,29.99,NNE,13,0.0,4.0,59,0.00,,---,0.01,VWS V14.01,2013-08-12 17:37:00,
2013-08-12 13:42:00,85.4,69.4,29.99,ENE,57,0.0,4.0,59,0.00,,---,0.01,VWS V14.01,2013-08-12 17:42:00,
2013-08-12 13:47:00,85.8,71.3,29.99,ENE,58,0.0,4.0,62,0.00,,---,0.01,VWS V14.01,2013-08-12 17:47:00,
2013-08-12 13:52:00,86.3,69.8,29.99,NE,40,0.0,4.0,58,0.00,,---,0.01,VWS V14.01,2013-08-12 17:52:00,
2013-08-12 13:57:00,86.3,69.3,29.98,SSE,148,0.0,4.0,57,0.00,,---,0.01,VWS V14.01,2013-08-12 17:57:00,
2013-08-12 14:02:00,85.9,68.9,29.98,NNE,17,0.0,0.0,57,0.00,,---,0.01,VWS V14.01,2013-08-12 18:02:00,
2013-08-12 14:07:00,86.1,69.6,29.99,SE,132,0.0,5.0,58,0.00,,---,0.01,VWS V14.01,2013-08-12 18:07:00,
2013-08-12 14:12:00,86.0,70.0,29.99,South,173,0.0,6.0,59,0.00,,---,0.01,VWS V14.01,2013-08-12 18:12:00,
2013-08-12 14:17:00,86.7,70.2,29.98,South,179,6.0,7.0,58,0.00,,---,0.01,VWS V14.01,2013-08-12 18:17:00,
2013-08-12 14:22:00,86.0,69.5,29.98,SE,136,0.0,7.0,58,0.00,,---,0.01,VWS V14.01,2013-08-12 18:22:00,
2013-08-12 14:27:00,86.2,69.7,29.98,SSW,199,0.0,7.0,58,0.00,,---,0.01,VWS V14.01,2013-08-12 18:27:00,
2013-08-12 14:32:00,86.9,70.9,29.98,West,260,0.0,1.0,59,0.00,,---,0.01,VWS V14.01,2013-08-12 18:32:00,
2013-08-12 14:37:00,87.3,69.7,29.98,South,191,3.0,7.0,56,0.00,,---,0.01,VWS V14.01,2013-08-12 18:37:00,
2013-08-12 14:42:00,86.6,69.6,29.98,South,171,1.0,7.0,57,0.00,,---,0.01,VWS V14.01,2013-08-12 18:42:00,
2013-08-12 14:47:00,86.8,69.8,29.98,South,183,0.0,7.0,57,0.00,,---,0.01,VWS V14.01,2013-08-12 18:47:00,
2013-08-12 14:52:00,86.6,69.6,29.97,South,172,0.0,7.0,57,0.00,,---,0.01,VWS V14.01,2013-08-12 18:52:00,
2013-08-12 14:57:00,86.6,70.1,29.97,SSW,192,0.0,7.0,58,0.00,,---,0.01,VWS V14.01,2013-08-12 18:57:00,
2013-08-12 15:02:00,86.2,69.7,29.98,SSE,167,0.0,5.0,58,0.00,,---,0.01,VWS V14.01,2013-08-12 19:02:00,
2013-08-12 15:07:00,86.0,70.0,29.97,South,170,0.0,5.0,59,0.00,,---,0.01,VWS V14.01,2013-08-12 19:07:00,
2013-08-12 15:12:00,86.0,69.0,29.97,SE,134,0.0,5.0,57,0.00,,---,0.01,VWS V14.01,2013-08-12 19:12:00,
2013-08-12 15:17:00,86.3,69.8,29.97,South,190,3.0,5.0,58,0.00,,---,0.01,VWS V14.01,2013-08-12 19:17:00,
2013-08-12 15:22:00,86.8,71.3,29.97,SE,134,1.0,5.0,60,0.00,,---,0.01,VWS V14.01,2013-08-12 19:22:00,
2013-08-12 15:27:00,87.1,70.0,29.97,SE,136,0.0,5.0,57,0.00,,---,0.01,VWS V14.01,2013-08-12 19:27:00,
2013-08-12 15:32:00,86.7,69.7,29.97,SSE,150,1.0,3.0,57,0.00,,---,0.01,VWS V14.01,2013-08-12 19:32:00,
2013-08-12 15:37:00,86.8,68.7,29.96,SE,141,0.0,4.0,55,0.00,,---,0.01,VWS V14.01,2013-08-12 19:37:00,
2013-08-12 15:42:00,86.9,69.3,29.96,East,97,1.0,5.0,56,0.00,,---,0.01,VWS V14.01,2013-08-12 19:42:00,
2013-08-12 15:47:00,87.1,70.0,29.96,South,188,6.0,6.0,57,0.00,,---,0.01,VWS V14.01,2013-08-12 19:47:00,
2013-08-12 15:52:00,87.4,69.8,29.96,SSW,209,0.0,6.0,56,0.00,,---,0.01,VWS V14.01,2013-08-12 19:52:00,
2013-08-12 15:57:00,88.1,69.4,29.95,SSW,199,1.0,6.0,54,0.00,,---,0.01,VWS V14.01,2013-08-12 19:57:00,
2013-08-12 16:02:00,89.2,69.3,29.95,SSW,199,0.0,1.0,52,0.00,,---,0.01,VWS V14.01,2013-08-12 20:02:00,
2013-08-12 16:07:00,90.1,70.7,29.95,SSE,159,3.0,4.0,53,0.00,,---,0.01,VWS V14.01,2013-08-12 20:07:00,
2013-08-12 16:12:00,89.4,68.9,29.95,South,189,3.0,5.0,51,0.00,,---,0.01,VWS V14.01,2013-08-12 20:12:00,
2013-08-12 16:17:00,88.0,69.3,29.94,SSE,163,1.0,5.0,54,0.00,,---,0.01,VWS V14.01,2013-08-12 20:17:00,
2013-08-12 16:22:00,87.2,68.5,29.94,ESE,117,2.0,5.0,54,0.00,,---,0.01,VWS V14.01,2013-08-12 20:22:00,
2013-08-12 16:27:00,87.1,69.5,29.94,East,90,6.0,6.0,56,0.00,,---,0.01,VWS V14.01,2013-08-12 20:27:00,
2013-08-12 16:31:00,87.0,69.9,29.94,SSE,163,3.0,3.0,57,0.00,,---,0.01,VWS V14.01,2013-08-12 20:31:00,
2013-08-12 16:36:00,87.4,69.3,29.94,SE,131,0.0,3.0,55,0.00,,---,0.01,VWS V14.01,2013-08-12 20:36:00,
2013-08-12 16:41:00,88.1,70.4,29.94,East,86,0.0,3.0,56,0.00,,---,0.01,VWS V14.01,2013-08-12 20:41:00,
2013-08-12 16:46:00,88.8,69.5,29.94,East,86,0.0,3.0,53,0.00,,---,0.01,VWS V14.01,2013-08-12 20:46:00,
2013-08-12 16:51:00,89.2,68.7,29.94,East,96,0.0,3.0,51,0.00,,---,0.01,VWS V14.01,2013-08-12 20:51:00,
2013-08-12 16:56:00,88.4,69.1,29.94,ESE,114,0.0,3.0,53,0.00,,---,0.01,VWS V14.01,2013-08-12 20:56:00,
2013-08-12 17:01:00,88.0,70.3,29.94,ESE,119,0.0,0.0,56,0.00,,---,0.01,VWS V14.01,2013-08-12 21:01:00,
2013-08-12 17:06:00,88.2,70.0,29.93,ESE,119,0.0,1.0,55,0.00,,---,0.01,VWS V14.01,2013-08-12 21:06:00,
2013-08-12 17:11:00,88.2,68.9,29.93,ESE,119,0.0,1.0,53,0.00,,---,0.01,VWS V14.01,2013-08-12 21:11:00,
2013-08-12 17:16:00,87.5,69.4,29.93,ESE,119,0.0,1.0,55,0.00,,---,0.01,VWS V14.01,2013-08-12 21:16:00,
2013-08-12 17:21:00,86.1,70.6,29.93,SSE,156,2.0,6.0,60,0.00,,---,0.01,VWS V14.01,2013-08-12 21:21:00,
2013-08-12 17:26:00,84.9,70.9,29.93,SE,136,2.0,6.0,63,0.00,,---,0.01,VWS V14.01,2013-08-12 21:26:00,
2013-08-12 17:31:00,84.2,71.2,29.93,SE,138,2.0,2.0,65,0.00,,---,0.01,VWS V14.01,2013-08-12 21:31:00,
2013-08-12 17:36:00,83.7,71.1,29.93,SE,138,0.0,5.0,66,0.00,,---,0.01,VWS V14.01,2013-08-12 21:36:00,
2013-08-12 17:41:00,83.4,70.9,29.94,ESE,121,5.0,6.0,66,0.00,,---,0.01,VWS V14.01,2013-08-12 21:41:00,
2013-08-12 17:46:00,82.9,70.8,29.93,ESE,122,2.0,6.0,67,0.00,,---,0.01,VWS V14.01,2013-08-12 21:46:00,
2013-08-12 17:51:00,82.8,71.2,29.93,SE,137,1.0,6.0,68,0.00,,---,0.01,VWS V14.01,2013-08-12 21:51:00,
2013-08-12 17:56:00,82.7,71.5,29.93,SE,137,0.0,6.0,69,0.00,,---,0.01,VWS V14.01,2013-08-12 21:56:00,
2013-08-12 18:01:00,82.5,71.3,29.93,SE,132,2.0,2.0,69,0.00,,---,0.01,VWS V14.01,2013-08-12 22:01:00,
2013-08-12 18:06:00,82.4,71.2,29.93,SE,131,0.0,2.0,69,0.00,,---,0.01,VWS V14.01,2013-08-12 22:06:00,
2013-08-12 18:11:00,82.3,73.2,29.93,SE,131,0.0,2.0,74,0.01,,---,0.02,VWS V14.01,2013-08-12 22:11:00,
2013-08-12 18:16:00,81.5,72.8,29.94,SE,130,0.0,2.0,75,0.03,,---,0.04,VWS V14.01,2013-08-12 22:16:00,
2013-08-12 18:21:00,80.2,72.7,29.94,NW,314,4.0,4.0,78,0.08,,---,0.09,VWS V14.01,2013-08-12 22:21:00,
2013-08-12 18:26:00,77.5,71.6,29.95,North,360,4.0,11.0,82,0.17,,---,0.18,VWS V14.01,2013-08-12 22:26:00,
2013-08-12 18:31:00,76.1,70.9,29.95,ENE,59,2.0,3.0,84,0.20,,---,0.21,VWS V14.01,2013-08-12 22:31:00,
2013-08-12 18:36:00,75.3,71.2,29.95,ENE,61,0.0,3.0,87,0.20,,---,0.21,VWS V14.01,2013-08-12 22:36:00,
2013-08-12 18:41:00,75.0,71.5,29.94,ENE,61,0.0,3.0,89,0.20,,---,0.21,VWS V14.01,2013-08-12 22:41:00,
2013-08-12 18:46:00,74.8,71.3,29.95,East,82,0.0,3.0,89,0.20,,---,0.21,VWS V14.01,2013-08-12 22:46:00,
2013-08-12 18:51:00,74.4,71.3,29.95,SSE,156,0.0,3.0,90,0.20,,---,0.21,VWS V14.01,2013-08-12 22:51:00,
2013-08-12 18:56:00,74.4,71.3,29.95,SSE,156,0.0,3.0,90,0.20,,---,0.21,VWS V14.01,2013-08-12 22:56:00,
2013-08-12 19:01:00,74.3,71.2,29.94,SSE,156,0.0,0.0,90,0.20,,---,0.21,VWS V14.01,2013-08-12 23:01:00,
2013-08-12 19:06:00,74.3,71.5,29.94,SSE,156,0.0,0.0,91,0.20,,---,0.21,VWS V14.01,2013-08-12 23:06:00,
2013-08-12 19:11:00,74.4,71.6,29.94,SSE,156,0.0,0.0,91,0.20,,---,0.21,VWS V14.01,2013-08-12 23:11:00,
2013-08-12 19:16:00,74.5,71.7,29.95,SSE,156,0.0,0.0,91,0.20,,---,0.21,VWS V14.01,2013-08-12 23:16:00,
2013-08-12 19:21:00,74.4,71.6,29.95,SSE,156,0.0,0.0,91,0.20,,---,0.21,VWS V14.01,2013-08-12 23:21:00,
2013-08-12 19:26:00,74.4,71.6,29.95,SSE,156,0.0,0.0,91,0.20,,---,0.21,VWS V14.01,2013-08-12 23:26:00,
2013-08-12 19:31:00,74.5,71.7,29.95,SSE,156,0.0,0.0,91,0.01,,---,0.21,VWS V14.01,2013-08-12 23:31:00,
2013-08-12 19:36:00,74.4,71.6,29.94,SSE,156,0.0,0.0,91,0.01,,---,0.21,VWS V14.01,2013-08-12 23:36:00,
2013-08-12 19:41:00,74.3,71.5,29.95,SSE,156,0.0,0.0,91,0.01,,---,0.21,VWS V14.01,2013-08-12 23:41:00,
2013-08-12 19:46:00,74.4,71.6,29.95,SSE,156,0.0,0.0,91,0.02,,---,0.22,VWS V14.01,2013-08-12 23:46:00,
2013-08-12 19:51:00,74.3,71.5,29.95,SSE,156,0.0,1.0,91,0.02,,---,0.22,VWS V14.01,2013-08-12 23:51:00,
2013-08-12 19:56:00,74.4,71.6,29.95,SSE,156,0.0,1.0,91,0.02,,---,0.22,VWS V14.01,2013-08-12 23:56:00,
2013-08-12 20:01:00,74.5,71.7,29.95,SSE,156,0.0,0.0,91,0.01,,---,0.22,VWS V14.01,2013-08-13 00:01:00,
2013-08-12 20:06:00,74.4,71.6,29.95,SSE,156,0.0,0.0,91,0.01,,---,0.22,VWS V14.01,2013-08-13 00:06:00,
2013-08-12 20:11:00,74.3,71.5,29.95,SSE,156,0.0,0.0,91,0.02,,---,0.23,VWS V14.01,2013-08-13 00:11:00,
2013-08-12 20:16:00,74.3,71.8,29.94,SSE,156,0.0,0.0,92,0.02,,---,0.23,VWS V14.01,2013-08-13 00:16:00,
2013-08-12 20:21:00,74.3,71.8,29.94,SSE,156,0.0,0.0,92,0.02,,---,0.23,VWS V14.01,2013-08-13 00:21:00,
2013-08-12 20:26:00,74.2,71.7,29.94,SSE,156,0.0,1.0,92,0.02,,---,0.23,VWS V14.01,2013-08-13 00:26:00,
2013-08-12 20:31:00,74.1,71.3,29.94,SSE,156,0.0,0.0,91,0.02,,---,0.23,VWS V14.01,2013-08-13 00:31:00,
2013-08-12 20:36:00,74.0,71.5,29.93,SSE,156,0.0,1.0,92,0.02,,---,0.23,VWS V14.01,2013-08-13 00:36:00,
2013-08-12 20:41:00,73.9,71.4,29.93,SSE,155,0.0,1.0,92,0.03,,---,0.24,VWS V14.01,2013-08-13 00:41:00,
2013-08-12 20:46:00,73.7,71.2,29.93,SSE,155,0.0,1.0,92,0.03,,---,0.24,VWS V14.01,2013-08-13 00:46:00,
2013-08-12 20:51:00,73.6,71.1,29.94,SSE,155,0.0,1.0,92,0.03,,---,0.24,VWS V14.01,2013-08-13 00:51:00,
2013-08-12 20:56:00,73.6,71.1,29.94,SSE,155,0.0,1.0,92,0.03,,---,0.24,VWS V14.01,2013-08-13 00:56:00,
2013-08-12 21:01:00,73.5,71.0,29.94,SSE,155,0.0,0.0,92,0.02,,---,0.24,VWS V14.01,2013-08-13 01:01:00,
2013-08-12 21:06:00,73.5,71.0,29.94,SSE,155,0.0,0.0,92,0.02,,---,0.24,VWS V14.01,2013-08-13 01:06:00,
2013-08-12 21:11:00,73.5,71.0,29.94,SSE,155,0.0,0.0,92,0.02,,---,0.24,VWS V14.01,2013-08-13 01:11:00,
2013-08-12 21:16:00,73.4,70.9,29.94,SSE,155,0.0,0.0,92,0.02,,---,0.24,VWS V14.01,2013-08-13 01:16:00,
2013-08-12 21:21:00,73.5,71.0,29.94,SSE,155,0.0,0.0,92,0.02,,---,0.24,VWS V14.01,2013-08-13 01:21:00,
2013-08-12 21:26:00,73.4,70.9,29.94,SSE,155,0.0,0.0,92,0.02,,---,0.24,VWS V14.01,2013-08-13 01:26:00,
2013-08-12 21:31:00,73.3,70.8,29.94,SSE,155,0.0,0.0,92,0.01,,---,0.24,VWS V14.01,2013-08-13 01:31:00,
2013-08-12 21:36:00,73.2,70.7,29.94,SSE,155,0.0,0.0,92,0.01,,---,0.24,VWS V14.01,2013-08-13 01:36:00,
2013-08-12 21:41:00,73.1,70.6,29.95,SSE,155,0.0,0.0,92,0.02,,---,0.25,VWS V14.01,2013-08-13 01:41:00,
2013-08-12 21:46:00,72.9,70.4,29.94,SSE,155,0.0,0.0,92,0.07,,---,0.30,VWS V14.01,2013-08-13 01:46:00,
2013-08-12 21:51:00,72.8,70.3,29.94,SSE,155,0.0,0.0,92,0.08,,---,0.31,VWS V14.01,2013-08-13 01:51:00,
2013-08-12 21:56:00,72.8,70.3,29.94,SSE,155,0.0,0.0,92,0.08,,---,0.31,VWS V14.01,2013-08-13 01:56:00,
2013-08-12 22:01:00,72.7,70.2,29.93,SSE,155,0.0,0.0,92,0.07,,---,0.31,VWS V14.01,2013-08-13 02:01:00,
2013-08-12 22:06:00,72.7,70.2,29.93,SSE,155,0.0,0.0,92,0.07,,---,0.31,VWS V14.01,2013-08-13 02:06:00,
2013-08-12 22:11:00,72.7,70.2,29.93,SSE,155,0.0,0.0,92,0.07,,---,0.31,VWS V14.01,2013-08-13 02:11:00,
2013-08-12 22:16:00,72.8,70.3,29.92,SSE,155,0.0,0.0,92,0.07,,---,0.31,VWS V14.01,2013-08-13 02:16:00,
2013-08-12 22:21:00,72.8,70.3,29.93,SSE,155,0.0,0.0,92,0.07,,---,0.31,VWS V14.01,2013-08-13 02:21:00,
2013-08-12 22:26:00,72.8,70.3,29.93,SSE,155,0.0,0.0,92,0.07,,---,0.31,VWS V14.01,2013-08-13 02:26:00,
2013-08-12 22:31:00,72.9,70.4,29.92,SSE,155,0.0,0.0,92,0.07,,---,0.31,VWS V14.01,2013-08-13 02:31:00,
2013-08-12 22:36:00,72.8,70.3,29.93,SSE,155,0.0,0.0,92,0.07,,---,0.31,VWS V14.01,2013-08-13 02:36:00,
2013-08-12 22:41:00,72.9,70.4,29.92,SSE,155,0.0,0.0,92,0.07,,---,0.31,VWS V14.01,2013-08-13 02:41:00,
2013-08-12 22:46:00,72.9,70.4,29.92,SSE,155,0.0,0.0,92,0.07,,---,0.31,VWS V14.01,2013-08-13 02:46:00,
2013-08-12 22:51:00,73.0,70.5,29.92,SSE,155,0.0,0.0,92,0.07,,---,0.31,VWS V14.01,2013-08-13 02:51:00,
2013-08-12 22:56:00,73.0,70.5,29.92,SSE,155,0.0,0.0,92,0.07,,---,0.31,VWS V14.01,2013-08-13 02:56:00,
2013-08-12 23:01:00,72.9,70.4,29.92,SSE,155,0.0,0.0,92,0.00,,---,0.31,VWS V14.01,2013-08-13 03:01:00,
2013-08-12 23:06:00,72.9,70.4,29.92,SSE,155,0.0,0.0,92,0.00,,---,0.31,VWS V14.01,2013-08-13 03:06:00,
2013-08-12 23:11:00,72.8,70.3,29.91,SSE,155,0.0,0.0,92,0.00,,---,0.31,VWS V14.01,2013-08-13 03:11:00,
2013-08-12 23:16:00,72.8,70.3,29.91,SSE,155,0.0,0.0,92,0.00,,---,0.31,VWS V14.01,2013-08-13 03:16:00,
2013-08-12 23:21:00,72.8,70.3,29.91,SSE,155,0.0,0.0,92,0.00,,---,0.31,VWS V14.01,2013-08-13 03:21:00,
2013-08-12 23:26:00,72.7,70.2,29.91,SSE,155,0.0,0.0,92,0.00,,---,0.31,VWS V14.01,2013-08-13 03:26:00,
2013-08-12 23:31:00,72.7,70.2,29.92,SSE,155,0.0,0.0,92,0.00,,---,0.31,VWS V14.01,2013-08-13 03:31:00,
2013-08-12 23:36:00,72.6,70.2,29.92,SSE,155,0.0,0.0,92,0.00,,---,0.31,VWS V14.01,2013-08-13 03:36:00,
2013-08-12 23:41:00,72.6,70.2,29.92,SSE,155,0.0,0.0,92,0.00,,---,0.31,VWS V14.01,2013-08-13 03:41:00,
2013-08-12 23:46:00,72.6,70.2,29.91,SSE,155,0.0,0.0,92,0.00,,---,0.31,VWS V14.01,2013-08-13 03:46:00,
2013-08-12 23:52:00,72.6,70.2,29.91,SSE,155,0.0,0.0,92,0.00,,---,0.31,VWS V14.01,2013-08-13 03:52:00,
2013-08-12 23:57:00,72.6,70.2,29.91,SSE,155,0.0,0.0,92,0.00,,---,0.31,VWS V14.01,2013-08-13 03:57:00,